Natchitoches, LA

9:49 AM CDT on August 20, 2017 (GMT -0500)
Natchitoches Regional

Weather History for KIER - November, 2012

Change the Weather History Date:

Thursday, November 1, 2012

  Actual Average Record
Temperature  
Mean Temperature 64 °F -  
Max Temperature 84 °F 75 °F 87 °F (1936)
Min Temperature 45 °F 51 °F 25 °F (1954)
Growing Degree Days 14 (Base 50)    
Moisture  
Dew Point 53 °F    
Average Humidity 81    
Maximum Humidity 100    
Minimum Humidity 33    
Precipitation  
Precipitation 0.00 in - - ()
Sea Level Pressure  
Sea Level Pressure 30.02 in    
Wind  
Wind Speed 0 mph (WSW)    
Max Wind Speed 6 mph    
Max Gust Speed -    
Visibility 7 miles    
Events Fog    
Averages and records for this station are not official NWS values.
T = Trace of Precipitation, MM = Missing Value Source: NWS Daily Summary

Daily Weather History Graph

Daily Weather History Graph

Search for Another Location

Airport or City:

Trip Planner

Search our weather history database for the weather conditions in past years. The results will help you decide how hot, cold, wet, or windy it might be!

Date:

Astronomy

Nov. 01, 2012 Rise Set
Actual Time 7:29 AM CDT 6:22 PM CDT
Civil Twilight 7:03 AM CDT 6:47 PM CDT
Nautical Twilight 6:35 AM CDT 7:16 PM CDT
Astronomical Twilight 6:06 AM CDT 7:44 PM CDT
Moon 8:27 PM CDT (11/1) 9:54 AM CDT (11/1)
Length of Visible Light 11h 43m
Length of Day
10h 53m
Waning Gibbous, 93% of the Moon is Illuminated
Nov 1
Waning Gibbous
Nov 6
Last Quarter
Nov 13
New
Nov 20
First Quarter
Nov 28
Full

Hourly Weather History & Observations

Time (CDT) Temp. Heat Index Dew Point Humidity Pressure Visibility Wind Dir Wind Speed Gust Speed Precip Events Conditions
12:15 AM 51.4 °F - 51.4 °F 100% 30.01 in 0.8 mi Calm Calm - N/A   Mist
12:35 AM 50.5 °F - 50.5 °F 100% 30.02 in 0.8 mi Calm Calm - N/A   Mist
1:15 AM 50.2 °F - 50.2 °F 100% 30.02 in 0.5 mi Calm Calm - N/A Fog Fog
1:35 AM 49.8 °F - 49.8 °F 100% 30.02 in 1.2 mi Calm Calm - N/A   Mist
2:15 AM 48.9 °F - 48.9 °F 100% 30.03 in 0.5 mi Calm Calm - N/A Fog Fog
2:35 AM 48.4 °F - 48.4 °F 100% 30.03 in 0.5 mi Calm Calm - N/A Fog Fog
2:55 AM 47.5 °F - 47.5 °F 100% 30.03 in 5.0 mi Calm Calm - N/A   Clear
3:15 AM 46.9 °F - 46.9 °F 100% 30.03 in 7.0 mi Calm Calm - N/A   Clear
3:35 AM 46.4 °F - 46.4 °F 100% 30.03 in 7.0 mi Calm Calm - N/A   Clear
3:55 AM 46.4 °F - 46.4 °F 100% 30.03 in 7.0 mi Calm Calm - N/A   Clear
4:15 AM 46.6 °F - 46.6 °F 100% 30.02 in 10.0 mi Calm Calm - N/A   Clear
4:35 AM 46.0 °F - 46.0 °F 100% 30.03 in 10.0 mi Calm Calm - N/A   Clear
4:55 AM 46.4 °F - 46.4 °F 100% 30.03 in 1.2 mi Calm Calm - N/A   Mist
5:15 AM 46.6 °F - 46.6 °F 100% 30.03 in 0.5 mi Calm Calm - N/A Fog Fog
5:35 AM 46.0 °F - 46.0 °F 100% 30.03 in 0.5 mi Calm Calm - N/A Fog Fog
5:55 AM 45.7 °F - 45.7 °F 100% 30.03 in 0.2 mi Calm Calm - N/A Fog Fog
6:15 AM 45.5 °F - 45.5 °F 100% 30.03 in 0.2 mi Calm Calm - N/A Fog Fog
6:35 AM 46.4 °F - 46.4 °F 100% 30.03 in 0.2 mi Calm Calm - N/A Fog Fog
6:55 AM 45.9 °F - 45.9 °F 100% 30.03 in 0.5 mi Calm Calm - N/A Fog Fog
7:35 AM 46.4 °F - 46.4 °F 100% 30.05 in 0.2 mi Calm Calm - N/A Fog Fog
7:55 AM 47.1 °F - 47.1 °F 100% 30.05 in 0.2 mi Calm Calm - N/A Fog Fog
8:35 AM 49.6 °F - 49.6 °F 100% 30.07 in 0.2 mi Calm Calm - N/A Fog Fog
9:15 AM 52.2 °F - 52.2 °F 100% 30.08 in 0.2 mi Calm Calm - N/A Fog Fog
9:35 AM 53.1 °F - 53.1 °F 100% 30.08 in 0.2 mi Calm Calm - N/A Fog Fog
9:55 AM 56.3 °F - 56.3 °F 100% 30.09 in 2.0 mi Calm Calm - N/A   Overcast
10:15 AM 59.5 °F - 56.7 °F 90% 30.09 in 4.0 mi Calm Calm - N/A   Scattered Clouds
10:35 AM 62.4 °F - 57.9 °F 85% 30.09 in 10.0 mi Calm Calm - N/A   Clear
11:15 AM 69.1 °F - 58.1 °F 68% 30.08 in 10.0 mi Calm Calm - N/A   Clear
11:35 AM 71.2 °F - 58.3 °F 64% 30.08 in 10.0 mi Calm Calm - N/A   Clear
11:55 AM 74.7 °F - 58.3 °F 57% 30.07 in 10.0 mi Calm Calm - N/A   Clear
12:15 PM 76.3 °F - 57.2 °F 52% 30.07 in 10.0 mi Calm Calm - N/A   Clear
12:35 PM 78.1 °F - 55.4 °F 45% 30.06 in 10.0 mi Calm Calm - N/A   Clear
1:15 PM 81.0 °F 80.6 °F 54.5 °F 40% 30.03 in 10.0 mi Calm Calm - N/A   Clear
1:35 PM 81.3 °F 80.9 °F 54.5 °F 40% 30.02 in 10.0 mi Calm Calm - N/A   Clear
1:55 PM 81.9 °F 81.2 °F 54.3 °F 39% 30.01 in 10.0 mi Calm Calm - N/A   Clear
2:15 PM 82.4 °F 81.4 °F 53.6 °F 37% 30.00 in 10.0 mi Calm Calm - N/A   Clear
2:35 PM 82.9 °F 81.8 °F 53.8 °F 36% 29.99 in 10.0 mi Calm Calm - N/A   Clear
2:55 PM 83.7 °F 82.5 °F 54.5 °F 37% 29.98 in 7.0 mi NW 5.8 mph - N/A   Clear
3:15 PM 84.0 °F - 52.0 °F 33% 29.98 in 10.0 mi WSW 4.6 mph - N/A   Clear
3:35 PM 84.0 °F 82.5 °F 53.1 °F 34% 29.98 in 10.0 mi SW 3.5 mph - N/A   Clear
4:15 PM 83.3 °F 82.0 °F 53.1 °F 35% 29.97 in 10.0 mi WSW 3.5 mph - N/A   Clear
4:35 PM 84.0 °F 82.6 °F 54.0 °F 35% 29.97 in 10.0 mi Calm Calm - N/A   Clear
4:55 PM 82.6 °F 81.7 °F 54.7 °F 38% 29.97 in 10.0 mi SSW 4.6 mph - N/A   Clear
5:15 PM 81.7 °F 81.2 °F 55.2 °F 40% 29.97 in 10.0 mi Calm Calm - N/A   Clear
5:35 PM 81.1 °F 81.0 °F 55.8 °F 42% 29.97 in 10.0 mi Calm Calm - N/A   Clear
6:15 PM 71.1 °F - 59.0 °F 66% 29.97 in 10.0 mi Calm Calm - N/A   Clear
6:35 PM 66.9 °F - 59.0 °F 76% 29.97 in 10.0 mi Calm Calm - N/A   Clear
6:55 PM 64.2 °F - 59.5 °F 85% 29.98 in 10.0 mi Calm Calm - N/A   Clear
7:15 PM 61.7 °F - 57.6 °F 86% 29.98 in 10.0 mi Calm Calm - N/A   Clear
7:35 PM 61.7 °F - 59.5 °F 93% 29.98 in 10.0 mi Calm Calm - N/A   Clear
7:55 PM 60.3 °F - 58.5 °F 94% 29.98 in 10.0 mi Calm Calm - N/A   Clear
8:15 PM 59.5 °F - 57.9 °F 94% 29.98 in 10.0 mi Calm Calm - N/A   Clear
8:35 PM 59.0 °F - 57.7 °F 96% 29.98 in 10.0 mi Calm Calm - N/A   Clear
8:55 PM 58.6 °F - 57.0 °F 94% 29.98 in 10.0 mi Calm Calm - N/A   Clear
9:15 PM 58.1 °F - 57.7 °F 99% 29.98 in 10.0 mi Calm Calm - N/A   Clear
9:35 PM 57.7 °F - 57.4 °F 99% 29.99 in 10.0 mi Calm Calm - N/A   Clear
9:55 PM 57.6 °F - 57.0 °F 98% 29.99 in 10.0 mi Calm Calm - N/A   Clear
10:15 PM 57.2 °F - 56.8 °F 99% 29.99 in 10.0 mi Calm Calm - N/A   Clear
10:35 PM 57.2 °F - 56.7 °F 98% 29.99 in 10.0 mi Calm Calm - N/A   Clear
10:55 PM 56.5 °F - 56.1 °F 99% 29.99 in 7.0 mi Calm Calm - N/A   Clear
11:15 PM 55.9 °F - 55.6 °F 99% 29.99 in 10.0 mi Calm Calm - N/A   Clear
11:35 PM 55.9 °F - 55.9 °F 100% 29.99 in 10.0 mi Calm Calm - N/A   Clear
11:55 PM 55.2 °F - 54.9 °F 99% 29.99 in 10.0 mi Calm Calm - N/A   Clear